ASIASAT 4

Last updated on Tue Sep 22 2026 00:03:10 GMT+0000 (Coordinated Universal Time)

1 27718U 03014A 26264.40533762 -.00000223 00000+0 00000+0 0 9999 2 27718 4.9439 74.4861 0002719 110.4605 108.8335 1.00272437 46264
UTC large
Height (km)
Speed (km/s)
/
Latitude / Longitude
Inclination (degrees)
Orbital Period (minutes)
Azimuth
Elevation
Range (km)
Doppler Factor

Next 0 passes for location: London (51.5072 / 0.1276)

No passes found over London.
ASIASAT 4